Wind_Speed
9 11 12 13 15 15 15 17 19 18 18 19 20 19 18 17 17 17 18 19 20 25
8 9 10 12 13 14 16 17 18 20 20 20 21 23 23 22 22 21 21 21 22 22
8 9 11 12 14 16 18 19 21 23 24 24 24 25 27 26 26 27 26 26 26 25
8 10 12 14 16 18 20 22 24 26 27 28 29 30 32 31 31 31 31 31 32 32
10 12 14 15 17 19 21 22 25 27 29 31 33 35 37 39 38 38 40 39 38 37
15 17 19 21 23 24 26 27 28 32 35 37 39 40 42 44 45 45 45 45 45 45
18 20 23 25 26 27 28 31 35 39 43 46 48 49 49 48 47 47 48 48 49 49
21 24 26 28 28 29 32 36 41 44 46 47 48 48 47 46 47 49 51 50 51 51
25 27 29 30 30 33 37 41 43 46 47 47 46 46 47 46 46 48 50 54 55 53
27 29 31 31 33 37 40 43 44 45 47 48 48 47 47 46 46 49 50 50 49 48
28 31 30 32 36 38 40 42 43 45 45 48 49 48 46 42 40 44 44 42 40 38
29 29 31 34 35 38 41 41 42 43 46 47 48 44 40 36 35 36 36 33 30 30
27 29 33 34 36 38 39 40 42 43 42 42 43 39 34 29 30 33 35 35 34 31
27 30 32 33 35 37 39 40 41 42 42 39 36 35 30 27 29 33 37 39 37 37
Wind_Direction
12 10 9 8 4 2 0 357 353 350 350 349 348 348 347 347 343 339 323 306 291 283
1 357 357 357 354 351 348 344 340 337 336 335 334 332 331 332 331 328 327 325 320 311
360 356 353 347 341 340 336 332 330 328 328 330 329 327 323 322 320 316 314 312 311 311
341 340 338 334 332 328 327 326 326 325 326 325 324 322 319 317 314 310 307 306 304 301
326 323 320 321 322 321 321 323 322 321 320 319 318 316 314 311 309 306 304 301 298 296
322 323 322 323 322 322 321 322 320 319 317 315 312 308 306 305 302 300 297 295 293 292
311 314 317 317 317 316 316 316 316 315 314 313 312 311 310 308 304 300 296 293 291 289
301 304 308 310 310 310 312 313 312 311 310 310 309 309 309 307 304 301 298 294 291 290
293 298 302 304 305 308 310 310 310 310 310 310 309 307 305 303 299 295 292 292 292 289
287 294 300 301 305 308 309 310 312 313 312 312 310 309 305 302 296 292 289 286 285 285
287 293 295 300 305 308 310 312 314 314 314 313 313 312 311 307 299 293 291 289 289 287
286 289 296 304 308 312 313 313 314 316 316 316 316 318 316 310 303 298 297 297 295 294
286 295 305 308 311 313 314 315 317 318 318 318 321 320 316 310 306 302 303 303 304 302
288 299 304 308 313 316 316 317 317 318 320 326 323 320 321 312 306 304 307 307 303 299
Height
1532 1531 1530 1529 1529 1527 1525 1525 1526 1525 1521 1520 1519 1516 1512 1509 1508 1507 1507 1506 1504 1503
1532 1532 1531 1530 1528 1527 1526 1524 1524 1524 1520 1517 1515 1513 1511 1507 1504 1505 1503 1503 1501 1498
1531 1531 1529 1528 1527 1525 1524 1523 1521 1520 1518 1513 1511 1508 1509 1505 1502 1501 1499 1497 1495 1493
1531 1529 1527 1526 1523 1523 1522 1521 1519 1516 1512 1509 1507 1503 1503 1499 1498 1494 1492 1491 1488 1488
1528 1526 1525 1524 1523 1521 1519 1517 1514 1512 1508 1506 1502 1499 1495 1492 1490 1486 1484 1482 1481 1479
1524 1523 1522 1519 1518 1516 1513 1511 1509 1506 1502 1499 1496 1493 1489 1484 1480 1476 1475 1473 1471 1468
1520 1519 1518 1516 1513 1511 1509 1506 1502 1499 1494 1490 1485 1480 1476 1473 1470 1466 1463 1461 1458 1455
1518 1516 1514 1512 1509 1506 1503 1499 1495 1490 1486 1482 1477 1472 1466 1462 1457 1453 1449 1448 1445 1443
1513 1512 1509 1506 1503 1500 1496 1491 1487 1482 1476 1471 1466 1462 1458 1453 1447 1442 1437 1431 1429 1429
1508 1506 1503 1499 1496 1492 1488 1483 1477 1471 1465 1459 1454 1450 1445 1440 1434 1429 1424 1420 1417 1414
1502 1499 1496 1493 1489 1484 1479 1473 1467 1461 1455 1448 1442 1437 1431 1426 1420 1415 1411 1408 1405 1403
1495 1492 1489 1485 1480 1475 1469 1464 1458 1451 1444 1437 1431 1426 1420 1415 1409 1404 1401 1399 1397 1394
1487 1484 1480 1475 1471 1466 1460 1454 1447 1441 1436 1430 1421 1417 1412 1408 1403 1397 1393 1391 1388 1386
1478 1475 1471 1467 1462 1456 1450 1444 1439 1433 1427 1421 1416 1410 1405 1401 1398 1392 1386 1382 1379 1377